Regional Weather Roundup
Issued by NWS Upton, NY

Current Version | Previous Version | Graphics & Text | Print | Product List | Glossary Off
Versions: 1 2 3 4 5 6 7 8 9 10 11 12 13 14 15 16 17 18 19 20 21 22 23 24 25 26 27 28 29 30 31 32 33 34 35 36 37 38 39 40 41 42 43 44 45 46 47 48 49 50

000
ASUS41 KOKX 052108
RWROKX

REGIONAL WEATHER ROUNDUP
NATIONAL WEATHER SERVICE NEW YORK NY
500 PM EDT TUE MAY 05 2015

NOTE: "FAIR" INDICATES FEW OR NO CLOUDS BELOW 12,000 FEET WITH NO
SIGNIFICANT WEATHER AND/OR OBSTRUCTIONS TO VISIBILITY.

NYZ071-072-176-178-NJZ106-104-052200-
NEW YORK CITY METRO AREA


CITY           SKY/WX    TMP DP  RH WIND       PRES   REMARKS
CENTRAL PARK   PTSUNNY   81  54  39 VRB3      30.17F
LAGUARDIA APRT PTSUNNY   80  54  40 S12       30.13F
KENNEDY INTL   PTSUNNY   71  53  52 S9        30.17F
NEWARK/LIBERTY PTSUNNY   79  54  41 SE8       30.14F
BRNX BOT. GARD   N/A     79  54  41 S12       30.14F
TETERBORO      PTSUNNY   82  50  32 W9        30.12F
$$

NYZ177-179-078>081-052200-
LONG ISLAND NEW YORK

CITY           SKY/WX    TMP DP  RH WIND       PRES   REMARKS
FARMINGDALE    SUNNY     75  53  46 S12       30.16F
ISLIP          PTSUNNY   75  52  44 S10       30.14F
SHIRLEY        SUNNY     76  52  43 S9        30.17F
WESTHAMPTON    SUNNY     72  51  47 S9        30.17F
MONTAUK POINT    N/A     69  51  52 SE5       30.18F
$$

NYZ052-065-067-052200-
HUDSON VALLEY

CITY           SKY/WX    TMP DP  RH WIND       PRES   REMARKS
WHITE PLAINS   MOSUNNY   79  52  38 VRB3      30.14F
NEWBURGH       MOSUNNY   81  46  30 W14G23    30.15F
MONTGOMERY     MOSUNNY   82  42  24 NW9       30.13F
POUGHKEEPSIE   MOSUNNY   83  50  31 VRB3      30.12F
ALBANY         CLOUDY    75  46  35 NW5       30.16F
$$

NJZ001-105-106-008-010-013-015-019>022-104-052200-
NEW JERSEY

CITY           SKY/WX    TMP DP  RH WIND       PRES   REMARKS
NEWARK/LIBERTY PTSUNNY   79  54  41 SE8       30.14F
TETERBORO      PTSUNNY   82  50  32 W9        30.12F
CALDWELL       PTSUNNY   82  49  31 W8        30.14F
MORRISTOWN     PTSUNNY   81  50  34 N8        30.14F
SOMERVILLE     CLOUDY    81  53  37 CALM      30.12F
SUSSEX         PTSUNNY   81  45  28 VRB3      30.16F
ANDOVER          N/A     79  50  36 VRB3      30.15F
TRENTON        CLOUDY    79  56  45 W7        30.15F
MILLVILLE      MOSUNNY   82  57  42 SW5       30.17F
ATLANTIC CITY  MOSUNNY   85  54  34 W12       30.15F
WRIGHTSTOWN    PTSUNNY   80  56  44 SW9       30.13F
TOMS RIVER     MOSUNNY   79  55  44 SE7       30.16F
BELMAR         MOSUNNY   73  52  46 SE10G17   30.16F
$$

PAZ047>061-062-071-052200-
EASTERN PENNSYLVANIA

CITY           SKY/WX    TMP DP  RH WIND       PRES   REMARKS
PHILADELPHIA   PTSUNNY   83  55  38 W10       30.16F
ALLENTOWN      CLOUDY    77  56  48 W7        30.17F
SCRANTON       PTSUNNY   79  46  31 CALM      30.18F
$$

CTZ002-004>006-009-010-012-RIZ004-006-007-MAZ004-011-015-052200-
SOUTHERN NEW ENGLAND
 IN CT

CITY           SKY/WX    TMP DP  RH WIND       PRES   REMARKS
BRADLEY INTL   PTSUNNY   82  40  22 NW12G17   30.12F
HARTFORD       MOSUNNY   82  47  29 MISG      30.11F
DANBURY        MOSUNNY   79  47  32 VRB5      30.15F
WTRBRY/OXFORD  PTSUNNY   79  46  31 NW5       30.17F
BRIDGEPORT     SUNNY     78  54  43 SW9       30.14F
MERIDEN        SUNNY     79  52  38 S10       30.13F
NEW HAVEN      MOSUNNY   75  53  46 SW6       30.14F
CHESTER        FAIR      77  54  44 S9        30.15F
GROTON         MOSUNNY   69  52  54 S7        30.15F
WILLIMANTIC    MOSUNNY   80  47  31 CALM      30.13F

 IN RI

CITY           SKY/WX    TMP DP  RH WIND       PRES   REMARKS
PROVIDENCE     PTSUNNY   72  53  51 S14       30.15F
BLOCK ISLAND   PTSUNNY   68  52  56 S8        30.18F
WESTERLY       PTSUNNY   70  51  51 S7        30.18S

 IN MA

CITY           SKY/WX    TMP DP  RH WIND       PRES   REMARKS
BOSTON         NOT AVBL
WORCESTER      PTSUNNY   78  41  26 NW6G22    30.15F
WESTFIELD      MOSUNNY   80  38  22 N12       30.13F
PROVINCETOWN   SUNNY     64  52  63 CALM      30.18S
NANTUCKET      PTSUNNY   65  50  58 E13       30.18F
$$

ANZ330-335-338-340-345-350-353-355-052200-
COASTAL MARINE OBSERVATIONS


STATION/POSITION TIME  SKY/WX   TEMP    WIND        PRES    VSBY  WAVE
                                AIR SEA DIR/SP/G                  HT/PER
                 (UTC)          (F)     (DEG/KT/KT) (MB)    (MI)  (FT/S)
NY HARB ENTRANCE 2050            56 54  180/ 10/ 10 1021.2          3/ 5
4S FIRE IS       2003               51                N/A           3/ 6
20S FIRE ISLAND  2050            53 51  180/  8/ 10 1021.7          3/ 6
GREAT SOUTH BAY  2000            64 62  210/  6/  6   N/A
23SW MTP         2050            51 49  210/  6/  8 1021.7          3/ 6
HUDSON CANYON    NOT AVBL
KINGS POINT      2000            79      CALM  /  2 1020.6
EASTERN LI SOUND 2000            55      90/  4/  6   N/A
ROBBINS REEF     2000            68     180/ 21/ 22 1020.0
$$


>>>>>>>>>>>>>>>>>>>>>>>>>>>> KEY <<<<<<<<<<<<<<<<<<<<<<<<<<<
>                                                          <
>     SKY/WX - SKY CONDITION/PRESENT WEATHER               <
>     TMP    - TEMPERATURE IN FAHRENHEIT                   <
>     DP     - DEWPOINT IN FAHRENHEIT                      <
>     RH     - RELATIVE HUMIDITY IN PERCENT                <
>     WIND   - DIRECTION AND SPEED IN MPH                  <
>     PRES   - MEAN SEA LEVEL PRESSURE IN INCHES OF HG     <
>     WCI    - WIND CHILL INDEX                            <
>     VSB    - VISIBILITY IN MILES                         <
>     HX     - HEAT INDEX                                  <
>     TC     - TEMPERATURE IN CELSIUS                      <
>     VRB    - VARIABLE WIND DIRECTION                     <
>                                                          <
>>>>>>>>>>>>>>>>>>>>>>>>>>>> KEY <<<<<<<<<<<<<<<<<<<<<<<<<<<





USA.gov is the U.S. government's official web portal to all federal, state and local government web resources and services.